Tracking 19562 objects as of 21-Mar-2019
HD Live streaming from Space Station
objects crossing your sky now

VIASAT 2

Track VIASAT 2 now!
VIASAT 2 is classified as:


NORAD ID: 42740
Int'l Code: 2017-029A
Perigee: 35,792.9 km
Apogee: 35,795.1 km
Inclination: 0.0 °
Period: 1,436.1 minutes
Semi major axis: 42164 km
RCS: Unknown
Launch date: June 1, 2017
Source: United States (US)
Launch site: FRENCH GUIANA (FRGUI)

VIASAT 2 is a commercial communications satellite which will be the world's highest capacity communications satellite after it becomes commercially available in early 2018.
aabbcc
Your satellite tracking list
Your tracking list is empty




NASA's NSSDC Master Catalog

Two Line Element Set (TLE):
1 42740U 17029A   19079.85080713 -.00000291 +00000-0 +00000-0 0  9997
2 42740 000.0187 163.8772 0000259 239.9096 010.6501 01.00271015006661
Source of the keplerian elements: AFSPC